TimeCDT,TemperatureF,Dew PointF,Humidity,Sea Level PressureIn,VisibilityMPH,Wind Direction,Wind SpeedMPH,Gust SpeedMPH,PrecipitationIn,Events,Conditions,WindDirDegrees,DateUTC
12:15 AM,32.2,24.4,73,30.34,10.0,NNW,3.5,-,N/A,,Clear,330,2012-10-05 05:15:00
12:35 AM,28.9,23.0,78,30.34,10.0,Calm,Calm,-,N/A,,Clear,0,2012-10-05 05:35:00
12:55 AM,27.9,23.5,84,30.34,10.0,Calm,Calm,-,N/A,,Clear,0,2012-10-05 05:55:00
1:15 AM,30.0,23.7,77,30.33,10.0,Calm,Calm,-,N/A,,Clear,0,2012-10-05 06:15:00
1:35 AM,30.4,23.9,77,30.34,10.0,Calm,Calm,-,N/A,,Clear,0,2012-10-05 06:35:00
1:55 AM,28.4,23.0,80,30.34,10.0,Calm,Calm,-,N/A,,Clear,0,2012-10-05 06:55:00
2:15 AM,28.6,23.0,80,30.33,10.0,WNW,3.5,-,N/A,,Clear,290,2012-10-05 07:15:00
2:35 AM,29.8,23.5,77,30.32,10.0,NW,4.6,-,N/A,,Clear,310,2012-10-05 07:35:00
2:55 AM,28.9,23.0,78,30.32,10.0,WNW,4.6,-,N/A,,Clear,300,2012-10-05 07:55:00
3:15 AM,27.5,22.5,81,30.32,10.0,WNW,4.6,-,N/A,,Clear,290,2012-10-05 08:15:00
3:35 AM,27.3,23.0,84,30.31,10.0,NW,3.5,-,N/A,,Clear,310,2012-10-05 08:35:00
3:55 AM,28.9,23.7,81,30.31,10.0,NNW,3.5,-,N/A,,Clear,330,2012-10-05 08:55:00
4:15 AM,28.4,23.9,83,30.31,10.0,Calm,Calm,-,N/A,,Clear,0,2012-10-05 09:15:00
4:35 AM,28.2,23.9,84,30.31,10.0,West,3.5,-,N/A,,Clear,280,2012-10-05 09:35:00
4:55 AM,27.5,23.0,83,30.31,10.0,West,4.6,-,N/A,,Clear,280,2012-10-05 09:55:00
5:15 AM,27.9,23.4,83,30.31,10.0,West,4.6,-,N/A,,Clear,280,2012-10-05 10:15:00
5:35 AM,28.8,23.9,82,30.31,10.0,West,4.6,-,N/A,,Clear,260,2012-10-05 10:35:00
5:55 AM,29.5,25.0,83,30.31,10.0,WSW,4.6,-,N/A,,Scattered Clouds,240,2012-10-05 10:55:00
6:15 AM,28.9,24.6,84,30.32,10.0,WSW,3.5,-,N/A,,Scattered Clouds,240,2012-10-05 11:15:00
6:35 AM,28.8,24.6,84,30.32,10.0,WSW,4.6,-,N/A,,Clear,240,2012-10-05 11:35:00
6:55 AM,29.1,24.8,84,30.33,10.0,West,4.6,-,N/A,,Clear,260,2012-10-05 11:55:00
7:15 AM,29.3,24.8,83,30.34,10.0,West,3.5,-,N/A,,Clear,260,2012-10-05 12:15:00
7:35 AM,29.7,25.2,83,30.34,10.0,Calm,Calm,-,N/A,,Mostly Cloudy,0,2012-10-05 12:35:00
7:55 AM,30.0,25.5,83,30.34,10.0,West,4.6,-,N/A,,Overcast,270,2012-10-05 12:55:00
8:15 AM,30.2,25.7,83,30.34,10.0,West,4.6,-,N/A,,Overcast,270,2012-10-05 13:15:00
8:35 AM,30.7,26.1,83,30.34,10.0,West,3.5,-,N/A,,Scattered Clouds,270,2012-10-05 13:35:00
8:55 AM,31.5,26.6,82,30.36,10.0,Calm,Calm,-,N/A,,Scattered Clouds,0,2012-10-05 13:55:00
9:15 AM,32.5,27.1,80,30.35,10.0,West,3.5,-,N/A,,Mostly Cloudy,280,2012-10-05 14:15:00
9:35 AM,34.7,27.5,75,30.36,10.0,WNW,5.8,-,N/A,,Mostly Cloudy,290,2012-10-05 14:35:00
9:55 AM,35.8,27.9,73,30.36,10.0,WNW,4.6,-,N/A,,Overcast,290,2012-10-05 14:55:00
10:15 AM,37.0,27.1,67,30.37,10.0,WNW,6.9,-,N/A,,Overcast,290,2012-10-05 15:15:00
10:35 AM,38.5,26.8,63,30.37,10.0,WNW,9.2,-,N/A,,Overcast,290,2012-10-05 15:35:00
10:55 AM,39.9,26.6,59,30.37,10.0,NW,11.5,-,N/A,,Overcast,310,2012-10-05 15:55:00
11:15 AM,41.0,26.6,57,30.37,10.0,NW,11.5,16.1,N/A,,Mostly Cloudy,310,2012-10-05 16:15:00
11:35 AM,40.8,26.2,56,30.36,10.0,NW,11.5,-,N/A,,Mostly Cloudy,320,2012-10-05 16:35:00
11:55 AM,41.2,25.9,55,30.36,10.0,NW,11.5,17.3,N/A,,Mostly Cloudy,310,2012-10-05 16:55:00
12:15 PM,41.7,25.7,53,30.36,10.0,NW,9.2,16.1,N/A,,Mostly Cloudy,310,2012-10-05 17:15:00
12:35 PM,43.2,26.2,51,30.35,10.0,NW,10.4,17.3,N/A,,Mostly Cloudy,320,2012-10-05 17:35:00
12:55 PM,43.3,25.0,48,30.35,10.0,WNW,12.7,-,N/A,,Overcast,300,2012-10-05 17:55:00
1:35 PM,45.3,24.1,43,30.33,10.0,NW,11.5,18.4,N/A,,Mostly Cloudy,320,2012-10-05 18:35:00
1:55 PM,45.9,23.2,41,30.32,10.0,NNW,15.0,24.2,N/A,,Clear,330,2012-10-05 18:55:00
2:15 PM,45.5,23.2,41,30.31,10.0,NNW,12.7,18.4,N/A,,Clear,330,2012-10-05 19:15:00
2:35 PM,46.9,21.7,37,30.31,10.0,NW,12.7,19.6,N/A,,Clear,310,2012-10-05 19:35:00
2:55 PM,46.6,20.5,36,30.31,10.0,NW,12.7,-,N/A,,Clear,320,2012-10-05 19:55:00
3:15 PM,46.0,18.3,33,30.30,10.0,NW,11.5,19.6,N/A,,Clear,320,2012-10-05 20:15:00
3:35 PM,46.2,17.2,31,30.30,10.0,NW,13.8,19.6,N/A,,Clear,320,2012-10-05 20:35:00
3:55 PM,45.9,19.2,35,30.30,10.0,NNW,12.7,18.4,N/A,,Clear,340,2012-10-05 20:55:00
4:15 PM,46.4,16.5,30,30.29,10.0,NNW,15.0,21.9,N/A,,Scattered Clouds,340,2012-10-05 21:15:00
4:35 PM,45.9,18.1,33,30.29,10.0,NW,11.5,-,N/A,,Scattered Clouds,310,2012-10-05 21:35:00
4:55 PM,46.2,16.5,31,30.29,10.0,NNW,13.8,-,N/A,,Clear,330,2012-10-05 21:55:00
5:15 PM,45.9,15.8,30,30.30,10.0,NW,15.0,-,N/A,,Scattered Clouds,320,2012-10-05 22:15:00
5:35 PM,45.1,16.2,31,30.30,10.0,NNW,13.8,-,N/A,,Scattered Clouds,340,2012-10-05 22:35:00
5:55 PM,44.6,18.5,35,30.31,10.0,NW,12.7,18.4,N/A,,Clear,320,2012-10-05 22:55:00
6:15 PM,44.1,19.4,37,30.31,10.0,NNW,15.0,20.7,N/A,,Scattered Clouds,340,2012-10-05 23:15:00
6:35 PM,43.3,19.9,39,30.31,10.0,NNW,10.4,-,N/A,,Clear,330,2012-10-05 23:35:00
6:55 PM,43.2,20.3,40,30.31,10.0,NNW,10.4,16.1,N/A,,Clear,330,2012-10-05 23:55:00
7:15 PM,42.4,20.3,41,30.31,10.0,NW,8.1,-,N/A,,Clear,320,2012-10-06 00:15:00
7:35 PM,41.0,20.3,44,30.31,10.0,NNW,4.6,-,N/A,,Scattered Clouds,330,2012-10-06 00:35:00
7:55 PM,38.8,20.1,47,30.31,10.0,NNW,3.5,-,N/A,,Scattered Clouds,330,2012-10-06 00:55:00
8:15 PM,38.7,19.9,47,30.32,10.0,WNW,3.5,-,N/A,,Scattered Clouds,300,2012-10-06 01:15:00
8:35 PM,37.8,19.8,48,30.32,10.0,Calm,Calm,-,N/A,,Scattered Clouds,0,2012-10-06 01:35:00
8:55 PM,36.0,19.8,52,30.32,10.0,West,4.6,-,N/A,,Scattered Clouds,270,2012-10-06 01:55:00
9:15 PM,36.1,19.6,51,30.33,10.0,West,3.5,-,N/A,,Scattered Clouds,270,2012-10-06 02:15:00
9:35 PM,34.0,19.8,56,30.33,10.0,West,4.6,-,N/A,,Overcast,260,2012-10-06 02:35:00
9:55 PM,33.1,19.4,57,30.33,10.0,West,5.8,-,N/A,,Scattered Clouds,280,2012-10-06 02:55:00
10:15 PM,33.8,19.4,56,30.33,10.0,WNW,5.8,-,N/A,,Clear,290,2012-10-06 03:15:00
10:35 PM,32.4,19.4,59,30.34,10.0,WNW,4.6,-,N/A,,Clear,290,2012-10-06 03:35:00
10:55 PM,32.2,19.2,59,30.34,10.0,West,3.5,-,N/A,,Clear,270,2012-10-06 03:55:00
11:15 PM,30.2,20.3,67,30.34,10.0,West,4.6,-,N/A,,Clear,260,2012-10-06 04:15:00
11:35 PM,32.0,21.2,64,30.34,10.0,West,4.6,-,N/A,,Clear,260,2012-10-06 04:35:00
11:55 PM,30.4,19.8,65,30.34,10.0,West,4.6,-,N/A,,Clear,270,2012-10-06 04:55:00